User: anonymous   Login
Location: Eckley
(40.9930°N, 75.8630°W)
Time: 13:52:37
(UTC-05:00)
Language:

Cosmos 2221 Rocket - Orbit

View from above orbital plane
View from above orbital plane
View from above satellite
View from above satellite

Ground track
Ground track

The orbit data is extracted from the following two-line orbital elements,

1 22237U 92080B   15027.10415436  .00000312  00000-0  39893-4 0  5521
2 22237 082.5106 208.8338 0020348 173.0903 326.2467 14.78037749194602
Epoch (UTC): 27 January 2015 02:29:58
Eccentricity: 0.0020348
inclination: 82.5106°
perigee height: 621 km
apogee height: 650 km
right ascension of ascending node: 208.8338°
argument of perigee: 173.0903°
revolutions per day: 14.78037749
mean anomaly at epoch: 326.2467°
orbit number at epoch: 19460

The dashed part of the orbit path shows where the satellite is in the earth's shadow,  

DLR